Weather History for KSUA - January, 2014

Change the Weather History Date:

Wednesday, January 29, 2014

  Actual Average Record
Temperature  
Mean Temperature 64 °F -  
Max Temperature 68 °F 74 °F 86 °F (2009)
Min Temperature 60 °F 53 °F 32 °F (1978)
Degree Days  
Heating Degree Days 1    
Growing Degree Days 14 (Base 50)    
Moisture  
Dew Point 60 °F    
Average Humidity 87    
Maximum Humidity 94    
Minimum Humidity 82    
Precipitation  
Precipitation 0.05 in - - ()
Sea Level Pressure  
Sea Level Pressure 30.06 in    
Wind  
Wind Speed 6 mph (NW)    
Max Wind Speed 15 mph    
Max Gust Speed 22 mph    
Visibility 8 miles    
Events Rain    
Averages and records for this station are not official NWS values.
T = Trace of Precipitation, MM = Missing Value Source: NWS Daily Summary

Daily Weather History Graph

Daily Weather History Graph

Search for Another Location

Airport or City:

Trip Planner

Search our weather history database for the weather conditions in past years. The results will help you decide how hot, cold, wet, or windy it might be!

Date:

Astronomy

Jan. 29, 2014 Rise Set
Actual Time 7:08 AM EST 6:00 PM EST
Civil Twilight 6:43 AM EST 6:24 PM EST
Nautical Twilight 6:15 AM EST 6:52 PM EST
Astronomical Twilight 5:48 AM EST 7:20 PM EST
Moon 5:42 AM EST 4:57 PM EST
Length of Visible Light 11h 41m
Length of Day
10h 52m
Waning Crescent, 2% of the Moon is Illuminated
Jan 29
Waning Crescent
Jan 30
New
Feb 6
First Quarter
Feb 14
Full
Feb 22
Last Quarter

Hourly Weather History & Observations

Time (EST) Temp. Dew Point Humidity Pressure Visibility Wind Dir Wind Speed Gust Speed Precip Events Conditions
12:15 AM 68.0 °F 62.6 °F 83% 30.04 in 10.0 mi SSW 3.5 mph - N/A   Clear
12:35 AM 68.0 °F 62.6 °F 83% 30.03 in 10.0 mi SW 3.5 mph - N/A   Clear
12:55 AM 68.0 °F 62.6 °F 83% 30.03 in 10.0 mi SW 3.5 mph - N/A   Clear
1:15 AM 66.2 °F 60.8 °F 83% 30.03 in 10.0 mi WSW 3.5 mph - N/A   Clear
1:35 AM 66.2 °F 60.8 °F 83% 30.03 in 10.0 mi WSW 3.5 mph - N/A   Clear
1:55 AM 66.2 °F 60.8 °F 83% 30.02 in 10.0 mi SW 4.6 mph - N/A   Clear
2:15 AM 66.2 °F 60.8 °F 83% 30.02 in 10.0 mi SW 3.5 mph - N/A   Clear
2:35 AM 64.4 °F 60.8 °F 88% 30.01 in 10.0 mi SSW 4.6 mph - N/A   Clear
2:55 AM 64.4 °F 60.8 °F 88% 30.01 in 10.0 mi Calm Calm - N/A   Clear
3:15 AM 64.4 °F 59.0 °F 83% 30.01 in 10.0 mi Calm Calm - N/A   Clear
3:35 AM 64.4 °F 59.0 °F 83% 30.00 in 10.0 mi Calm Calm - N/A   Clear
3:55 AM 64.4 °F 59.0 °F 83% 30.00 in 10.0 mi Calm Calm - N/A   Clear
4:15 AM 62.6 °F 59.0 °F 88% 30.01 in 10.0 mi WSW 3.5 mph - N/A   Clear
4:35 AM 64.4 °F 60.8 °F 88% 30.00 in 10.0 mi WSW 3.5 mph - N/A   Clear
4:55 AM 64.4 °F 59.0 °F 83% 30.01 in 10.0 mi SW 3.5 mph - N/A   Clear
5:15 AM 64.4 °F 60.8 °F 88% 30.01 in 10.0 mi WSW 3.5 mph - N/A   Clear
5:35 AM 64.4 °F 60.8 °F 88% 30.01 in 10.0 mi WSW 3.5 mph - N/A   Clear
5:55 AM 64.4 °F 60.8 °F 88% 30.02 in 10.0 mi SW 4.6 mph - N/A   Clear
6:15 AM 64.4 °F 60.8 °F 88% 30.02 in 10.0 mi West 3.5 mph - N/A   Clear
6:47 AM 64.4 °F 60.8 °F 88% 30.04 in 10.0 mi WNW 4.6 mph - N/A   Scattered Clouds
7:15 AM 64.4 °F 60.8 °F 88% 30.05 in 6.0 mi Calm Calm - N/A   Mostly Cloudy
7:55 AM 66.2 °F 62.6 °F 88% 30.06 in 6.0 mi Calm Calm - N/A   Mostly Cloudy
8:20 AM 68.0 °F 62.6 °F 83% 30.06 in 6.0 mi NW 4.6 mph - N/A   Overcast
8:38 AM 66.2 °F 62.6 °F 88% 30.07 in 4.0 mi NNW 9.2 mph - N/A   Overcast
8:47 AM 66.2 °F 62.6 °F 88% 30.07 in 2.0 mi NNW 8.1 mph - N/A   Overcast
9:47 AM 62.6 °F 59.0 °F 88% 30.10 in 7.0 mi NNW 15.0 mph - N/A   Overcast
10:47 AM 64.4 °F 59.0 °F 83% 30.11 in 7.0 mi North 10.4 mph - N/A   Overcast
11:47 AM 66.2 °F 60.8 °F 83% 30.09 in 7.0 mi North 11.5 mph - N/A   Overcast
12:47 PM 66.2 °F 60.8 °F 83% 30.08 in 5.0 mi North 11.5 mph 16.1 mph N/A   Haze
1:47 PM 64.4 °F 60.8 °F 88% 30.06 in 7.0 mi North 10.4 mph 18.4 mph N/A   Overcast
2:47 PM 64.4 °F 60.8 °F 88% 30.03 in 6.0 mi North 12.7 mph 20.7 mph N/A   Overcast
3:20 PM 64.4 °F 59.0 °F 83% 30.03 in 1.0 mi North 12.7 mph 19.6 mph N/A Rain Heavy Rain
3:47 PM 62.6 °F 59.0 °F 88% 30.06 in 1.0 mi NNW 13.8 mph 19.6 mph N/A Rain Heavy Rain
4:47 PM 62.6 °F 57.2 °F 82% 30.07 in 2.0 mi North 13.8 mph - N/A Rain Light Rain
5:47 PM 62.6 °F 59.0 °F 88% 30.09 in 1.5 mi North 11.5 mph 19.6 mph N/A Rain Heavy Rain
6:47 PM 62.6 °F 59.0 °F 88% 30.09 in 2.0 mi North 11.5 mph 18.4 mph N/A Rain Light Rain
8:15 PM 60.8 °F 57.2 °F 88% 30.11 in 10.0 mi North 8.1 mph - N/A Rain Light Rain
8:35 PM 62.6 °F 59.0 °F 88% 30.12 in 10.0 mi North 11.5 mph 17.3 mph N/A Rain Light Rain
8:55 PM 62.6 °F 59.0 °F 88% 30.10 in 10.0 mi North 11.5 mph 19.6 mph N/A   Overcast
9:15 PM 62.6 °F 59.0 °F 88% 30.11 in 5.0 mi North 11.5 mph 19.6 mph N/A   Overcast
9:35 PM 62.6 °F 59.0 °F 88% 30.11 in 5.0 mi North 12.7 mph 20.7 mph N/A   Overcast
9:55 PM 62.6 °F 59.0 °F 88% 30.12 in 7.0 mi North 10.4 mph 19.6 mph 0.01 in   Overcast
10:15 PM 62.6 °F 59.0 °F 88% 30.12 in 5.0 mi North 13.8 mph 20.7 mph N/A   Overcast
10:35 PM 62.6 °F 59.0 °F 88% 30.12 in 4.0 mi North 11.5 mph - 0.01 in   Drizzle
10:55 PM 62.6 °F 59.0 °F 88% 30.12 in 5.0 mi NNW 8.1 mph - 0.04 in Rain Rain
11:15 PM 60.8 °F 59.0 °F 94% 30.12 in 7.0 mi North 13.8 mph 21.9 mph N/A   Light Drizzle
11:35 PM 60.8 °F 59.0 °F 94% 30.12 in 10.0 mi North 13.8 mph 20.7 mph N/A   Overcast
11:55 PM 60.8 °F 59.0 °F 94% 30.11 in 10.0 mi North 11.5 mph 16.1 mph N/A   Overcast